FW8685 Weather Reports


time (UTC)temp
F
wind
direction
speed
knots
gust
knots
rain 1hr
in
rain 24hr
in
rain mn
in
humidity
%
barometer
mb
20260901204544 102 154 10.4 20.9 0.00 0.00 0.00 26 1011.8
20260901204030 102 132 7.0 18.2 0.00 0.00 0.00 27 1011.8
20260901203524 102 142 11.3 18.2 0.00 0.00 0.00 27 1012.0
20260901203045 102 133 8.7 17.4 0.00 0.00 0.00 26 1012.0
20260901202524 102 138 9.6 16.5 0.00 0.00 0.00 27 1011.9
20260901202026 102 114 7.8 17.4 0.00 0.00 0.00 27 1012.1
20260901201546 102 109 10.4 17.4 0.00 0.00 0.00 27 1012.2
20260901201024 102 122 10.4 18.2 0.00 0.00 0.00 27 1012.3
20260901200524 102 128 10.4 20.9 0.00 0.00 0.00 26 1012.2
20260901200044 102 155 9.6 20.9 0.00 0.00 0.00 28 1012.3
20260901195527 102 157 9.6 19.1 0.00 0.00 0.00 27 1012.3
20260901195025 103 150 9.6 20.9 0.00 0.00 0.00 26 1012.4
20260901194552 103 137 12.2 20.9 0.00 0.00 0.00 27 1012.4
20260901194023 103 123 9.6 17.4 0.00 0.00 0.00 28 1012.4
20260901193524 102 166 7.0 20.0 0.00 0.00 0.00 27 1012.6
20260901193046 103 162 11.3 20.0 0.00 0.00 0.00 27 1012.8
20260901192524 102 165 7.8 20.0 0.00 0.00 0.00 27 1012.7
20260901192025 100 105 4.3 23.5 0.00 0.00 0.00 29 1012.7
20260901191550 102 161 10.4 23.5 0.00 0.00 0.00 28 1012.8
20260901191025 103 126 13.0 23.5 0.00 0.00 0.00 27 1012.9
20260901190527 103 173 9.6 20.0 0.00 0.00 0.00 27 1012.9
20260901190051 101 132 7.0 20.0 0.00 0.00 0.00 28 1012.9
20260901185525 103 147 7.8 17.4 0.00 0.00 0.00 28 1012.9
20260901185025 102 140 11.3 19.1 0.00 0.00 0.00 28 1012.9
20260901184550 102 134 9.6 20.9 0.00 0.00 0.00 29 1013.0
20260901184024 103 153 11.3 20.9 0.00 0.00 0.00 27 1013.0
20260901183525 101 126 9.6 18.2 0.00 0.00 0.00 29 1013.0
20260901183102 100 138 9.6 17.4 0.00 0.00 0.00 30 1013.2
20260901182524 99 161 8.7 17.4 0.00 0.00 0.00 30 1013.3
20260901182026 100 138 12.2 17.4 0.00 0.00 0.00 30 1013.3
20260901181543 99 125 9.6 16.5 0.00 0.00 0.00 32 1013.4
20260901181023 98 129 8.7 15.6 0.00 0.00 0.00 32 1013.5
20260901180528 98 142 7.8 16.5 0.00 0.00 0.00 31 1013.5
20260901180043 99 150 7.8 16.5 0.00 0.00 0.00 30 1013.6
20260901175528 98 142 7.8 18.2 0.00 0.00 0.00 31 1013.5
20260901175025 98 148 10.4 18.2 0.00 0.00 0.00 31 1013.6
20260901174542 99 134 9.6 17.4 0.00 0.00 0.00 32 1013.6
20260901174024 99 132 7.0 15.6 0.00 0.00 0.00 33 1013.7
20260901173529 99 148 10.4 15.6 0.00 0.00 0.00 32 1013.8
20260901173045 99 142 7.8 20.0 0.00 0.00 0.00 33 1013.8
20260901172524 99 119 10.4 20.0 0.00 0.00 0.00 33 1013.8
20260901172024 99 132 10.4 14.8 0.00 0.00 0.00 34 1013.9
20260901171542 99 156 7.8 21.7 0.00 0.00 0.00 34 1013.9
20260901171024 98 97 8.7 21.7 0.00 0.00 0.00 34 1013.9
20260901170524 98 149 11.3 21.7 0.00 0.00 0.00 35 1013.9
20260901170049 98 153 8.7 20.9 0.00 0.00 0.00 36 1014.0
20260901165525 97 146 8.7 19.1 0.00 0.00 0.00 37 1014.0
20260901165025 97 135 13.0 20.0 0.00 0.00 0.00 36 1014.1
20260901164547 97 155 11.3 23.5 0.00 0.00 0.00 37 1014.1
20260901164026 97 148 10.4 23.5 0.00 0.00 0.00 36 1014.2
20260901163524 97 112 10.4 18.2 0.00 0.00 0.00 36 1014.2
20260901163053 97 140 8.7 21.7 0.00 0.00 0.00 36 1014.2
20260901162523 97 160 9.6 21.7 0.00 0.00 0.00 37 1014.3
20260901162027 96 168 10.4 21.7 0.00 0.00 0.00 36 1014.4
20260901161553 96 161 10.4 18.2 0.00 0.00 0.00 37 1014.3
20260901161023 96 142 10.4 18.2 0.00 0.00 0.00 37 1014.3
20260901160530 96 148 11.3 18.2 0.00 0.00 0.00 37 1014.2
20260901160044 96 154 8.7 18.2 0.00 0.00 0.00 37 1014.3
20260901155523 96 109 7.8 18.2 0.00 0.00 0.00 39 1014.2
20260901155027 95 136 10.4 20.0 0.00 0.00 0.00 39 1014.3
20260901154610 95 146 11.3 20.0 0.00 0.00 0.00 39 1014.3
20260901154025 94 167 8.7 18.2 0.00 0.00 0.00 39 1014.3
20260901153526 94 135 7.8 16.5 0.00 0.00 0.00 40 1014.3
20260901153049 93 130 8.7 16.5 0.00 0.00 0.00 41 1014.3
20260901152525 93 159 8.7 16.5 0.00 0.00 0.00 41 1014.3
20260901152025 93 151 7.0 13.0 0.00 0.00 0.00 42 1014.4
20260901151544 92 122 7.8 15.6 0.00 0.00 0.00 42 1014.4
20260901151025 92 141 7.8 15.6 0.00 0.00 0.00 43 1014.4
20260901150524 92 148 7.0 15.6 0.00 0.00 0.00 43 1014.3
20260901150054 91 138 6.1 13.9 0.00 0.00 0.00 43 1014.4
20260901145526 90 167 7.0 13.9 0.00 0.00 0.00 44 1014.4
20260901145027 90 134 8.7 13.9 0.00 0.00 0.00 45 1014.4
20260901144547 89 133 5.2 13.0 0.00 0.00 0.00 46 1014.4
20260901144025 88 135 6.1 12.2 0.00 0.00 0.00 47 1014.4
20260901143526 88 157 7.0 12.2 0.00 0.00 0.00 48 1014.4
20260901143046 87 118 7.0 12.2 0.00 0.00 0.00 49 1014.5
20260901142524 86 121 6.1 10.4 0.00 0.00 0.00 51 1014.6
20260901142025 85 119 4.3 10.4 0.00 0.00 0.00 52 1014.6
20260901141556 84 142 4.3 8.7 0.00 0.00 0.00 54 1014.6
20260901141026 83 134 5.2 8.7 0.00 0.00 0.00 56 1014.6
20260901140526 82 150 5.2 8.7 0.00 0.00 0.00 56 1014.5
20260901140056 81 132 2.6 7.8 0.00 0.00 0.00 59 1014.6
20260901135523 80 121 2.6 7.0 0.00 0.00 0.00 60 1014.6
20260901135026 79 134 2.6 7.0 0.00 0.00 0.00 62 1014.6
20260901134546 78 117 2.6 7.0 0.00 0.00 0.00 63 1014.6
20260901134023 77 114 1.7 7.0 0.00 0.00 0.00 65 1014.6
20260901133525 76 118 2.6 7.0 0.00 0.00 0.00 67 1014.6
20260901133045 75 125 3.5 7.0 0.00 0.00 0.00 68 1014.6
20260901132524 74 121 2.6 7.0 0.00 0.00 0.00 69 1014.6
20260901132025 73 114 2.6 6.1 0.00 0.00 0.00 72 1014.6
20260901131543 73 134 2.6 5.2 0.00 0.00 0.00 73 1014.5
20260901131024 72 108 1.7 3.5 0.00 0.00 0.00 74 1014.6
20260901130530 71 126 1.7 3.5 0.00 0.00 0.00 76 1014.6
20260901130043 71 111 1.7 5.2 0.00 0.00 0.00 77 1014.5
20260901125520 70 115 1.7 5.2 0.00 0.00 0.00 78 1014.5
20260901125025 69 116 2.6 5.2 0.00 0.00 0.00 78 1014.4
20260901124548 69 115 3.5 5.2 0.00 0.00 0.00 79 1014.4
20260901124024 69 111 1.7 5.2 0.00 0.00 0.00 79 1014.2
20260901123521 69 104 2.6 5.2 0.00 0.00 0.00 79 1014.3
20260901123046 68 108 2.6 3.5 0.00 0.00 0.00 78 1014.2
20260901122529 68 111 1.7 3.5 0.00 0.00 0.00 78 1014.1
20260901122028 68 118 1.7 2.6 0.00 0.00 0.00 78 1014.1
20260901121542 68 111 1.7 2.6 0.00 0.00 0.00 78 1014.0
20260901121025 68 108 1.7 2.6 0.00 0.00 0.00 78 1013.9
20260901120525 68 107 1.7 2.6 0.00 0.00 0.00 78 1013.8
20260901120100 68 107 1.7 2.6 0.00 0.00 0.00 78 1013.8
20260901115526 68 109 1.7 2.6 0.00 0.00 0.00 78 1013.8
20260901115028 68 105 1.7 3.5 0.00 0.00 0.00 78 1013.8
20260901114545 68 108 1.7 3.5 0.00 0.00 0.00 78 1013.8
20260901114026 68 108 1.7 3.5 0.00 0.00 0.00 78 1013.9
20260901113526 68 111 1.7 2.6 0.00 0.00 0.00 78 1013.8
20260901113054 68 112 0.9 2.6 0.00 0.00 0.00 78 1013.8
20260901112522 68 112 1.7 2.6 0.00 0.00 0.00 77 1013.8
20260901112024 69 119 1.7 2.6 0.00 0.00 0.00 77 1013.7
20260901111547 69 116 0.9 1.7 0.00 0.00 0.00 76 1013.7
20260901111024 69 116 0.9 1.7 0.00 0.00 0.00 76 1013.7
20260901110525 69 116 0.9 2.6 0.00 0.00 0.00 76 1013.7
20260901110050 69 116 0.9 2.6 0.00 0.00 0.00 76 1013.6
20260901105524 69 116 1.7 2.6 0.00 0.00 0.00 75 1013.5
20260901105024 69 116 1.7 2.6 0.00 0.00 0.00 75 1013.6
20260901104544 70 116 1.7 2.6 0.00 0.00 0.00 75 1013.6
20260901104025 70 116 1.7 2.6 0.00 0.00 0.00 75 1013.5
20260901103525 70 117 1.7 3.5 0.00 0.00 0.00 74 1013.5
20260901103054 70 111 1.7 3.5 0.00 0.00 0.00 74 1013.4
20260901102525 70 116 1.7 3.5 0.00 0.00 0.00 74 1013.4
20260901102024 70 107 1.7 5.2 0.00 0.00 0.00 74 1013.3
20260901101548 70 109 1.7 5.2 0.00 0.00 0.00 74 1013.3
20260901101122 70 112 2.6 5.2 0.00 0.00 0.00 74 1013.3
20260901100527 71 112 2.6 5.2 0.00 0.00 0.00 74 1013.3
20260901100045 71 107 2.6 3.5 0.00 0.00 0.00 73 1013.2
20260901095524 71 109 2.6 3.5 0.00 0.00 0.00 73 1013.1
20260901095024 71 115 1.7 3.5 0.00 0.00 0.00 72 1013.1
20260901094547 71 115 1.7 3.5 0.00 0.00 0.00 73 1013.1
20260901094026 71 107 1.7 3.5 0.00 0.00 0.00 73 1013.1
20260901093529 71 105 1.7 3.5 0.00 0.00 0.00 73 1013.0
20260901093052 71 101 1.7 3.5 0.00 0.00 0.00 73 1013.0
20260901092525 71 128 1.7 2.6 0.00 0.00 0.00 73 1012.9
20260901092024 71 128 0.9 2.6 0.00 0.00 0.00 73 1012.9
20260901091554 71 128 0.9 2.6 0.00 0.00 0.00 73 1013.0
20260901091023 71 128 1.7 2.6 0.00 0.00 0.00 72 1012.9
20260901090527 71 138 0.9 2.6 0.00 0.00 0.00 71 1012.9
20260901090057 72 138 0.9 2.6 0.00 0.00 0.00 71 1012.9
20260901085524 72 138 0.9 3.5 0.00 0.00 0.00 71 1012.7
20260901085024 72 139 0.9 3.5 0.00 0.00 0.00 71 1012.9
20260901084541 72 142 1.7 3.5 0.00 0.00 0.00 71 1012.7
20260901084026 72 119 1.7 3.5 0.00 0.00 0.00 70 1012.6
20260901083529 72 134 1.7 5.2 0.00 0.00 0.00 70 1012.5
20260901083042 72 117 1.7 5.2 0.00 0.00 0.00 70 1012.5
20260901082528 72 107 2.6 5.2 0.00 0.00 0.00 70 1012.5
20260901082024 72 111 2.6 5.2 0.00 0.00 0.00 70 1012.4
20260901081545 72 109 2.6 5.2 0.00 0.00 0.00 70 1012.4
20260901081028 72 117 2.6 5.2 0.00 0.00 0.00 70 1012.4
20260901080525 73 109 1.7 3.5 0.00 0.00 0.00 70 1012.4
20260901080057 73 112 1.7 3.5 0.00 0.00 0.00 69 1012.4
20260901075525 73 114 1.7 3.5 0.00 0.00 0.00 68 1012.5
20260901075024 73 119 0.9 3.5 0.00 0.00 0.00 68 1012.3
20260901074542 73 119 1.7 3.5 0.00 0.00 0.00 68 1012.5
20260901074023 73 111 1.7 3.5 0.00 0.00 0.00 68 1012.5
20260901073524 73 108 1.7 3.5 0.00 0.00 0.00 68 1012.4
20260901073043 74 111 1.7 3.5 0.00 0.00 0.00 67 1012.6
20260901072524 74 119 1.7 5.2 0.00 0.00 0.00 67 1012.6
20260901072024 74 106 2.6 5.2 0.00 0.00 0.00 67 1012.6
20260901071545 74 110 2.6 5.2 0.00 0.00 0.00 67 1012.7
20260901071024 74 109 2.6 5.2 0.00 0.00 0.00 67 1012.6
20260901070527 74 107 3.5 5.2 0.00 0.00 0.00 67 1012.4
20260901070048 74 106 2.6 5.2 0.00 0.00 0.00 66 1012.5
20260901065525 74 113 2.6 5.2 0.00 0.00 0.00 66 1012.6
20260901065024 74 109 3.5 5.2 0.00 0.00 0.00 66 1012.7
20260901064551 75 105 2.6 5.2 0.00 0.00 0.00 65 1012.7
20260901064025 75 107 1.7 3.5 0.00 0.00 0.00 64 1012.8
20260901063524 75 104 1.7 3.5 0.00 0.00 0.00 65 1012.7
20260901063053 75 109 1.7 3.5 0.00 0.00 0.00 64 1012.7
20260901062524 75 119 1.7 3.5 0.00 0.00 0.00 63 1012.8
20260901062025 76 118 1.7 3.5 0.00 0.00 0.00 62 1012.7
20260901061545 76 111 1.7 3.5 0.00 0.00 0.00 62 1012.8
20260901061024 76 113 1.7 3.5 0.00 0.00 0.00 62 1012.8
20260901060527 76 114 2.6 3.5 0.00 0.00 0.00 61 1012.8
20260901060044 77 122 1.7 3.5 0.00 0.00 0.00 60 1012.7
20260901055522 77 119 2.6 5.2 0.00 0.00 0.00 60 1012.6
20260901055025 77 112 2.6 5.2 0.00 0.00 0.00 60 1012.6
20260901054545 77 120 2.6 5.2 0.00 0.00 0.00 60 1012.6
20260901054025 77 113 2.6 5.2 0.00 0.00 0.00 59 1012.4
20260901053525 78 111 2.6 5.2 0.00 0.00 0.00 59 1012.5
20260901053050 78 109 2.6 5.2 0.00 0.00 0.00 58 1012.5
20260901052527 78 108 2.6 5.2 0.00 0.00 0.00 58 1012.7
20260901052027 78 112 2.6 5.2 0.00 0.00 0.00 57 1012.6
20260901051541 78 119 2.6 5.2 0.00 0.00 0.00 57 1012.6
20260901051024 79 109 3.5 7.0 0.00 0.00 0.00 57 1012.4
20260901050529 79 98 3.5 7.0 0.00 0.00 0.00 56 1012.5
20260901050046 79 103 2.6 6.1 0.00 0.00 0.00 56 1012.5
20260901045524 79 101 3.5 6.1 0.00 0.00 0.00 56 1012.6
20260901045026 80 107 4.3 6.1 0.00 0.00 0.00 55 1012.7
20260901044546 80 104 4.3 6.1 0.00 0.00 0.00 55 1012.7
20260901044026 80 93 4.3 6.1 0.00 0.00 0.00 54 1012.7
20260901043524 80 108 3.5 6.1 0.00 0.00 0.00 54 1012.7
20260901043044 81 109 3.5 7.8 0.00 0.00 0.00 53 1012.6
20260901042525 81 106 3.5 7.8 0.00 0.00 0.00 53 1012.4
20260901042026 81 107 4.3 7.8 0.00 0.00 0.00 53 1012.4
20260901041549 81 104 5.2 8.7 0.00 0.00 0.00 53 1012.2
20260901041024 81 107 5.2 8.7 0.00 0.00 0.00 52 1012.3
20260901040525 82 111 5.2 7.8 0.00 0.00 0.00 52 1012.2
20260901040048 82 107 5.2 7.8 0.00 0.00 0.00 52 1012.2
20260901035525 82 107 5.2 8.7 0.00 0.00 0.00 51 1012.2
20260901035023 82 360 5.2 8.7 0.00 0.00 0.00 51 1012.0
20260901034547 83 117 6.1 8.7 0.00 0.00 0.00 50 1012.0
20260901034025 83 107 6.1 8.7 0.00 0.00 0.00 50 1011.9
20260901033525 83 104 5.2 9.6 0.00 0.00 0.00 50 1011.9
20260901033048 83 103 6.1 9.6 0.00 0.00 0.00 49 1011.9
20260901032528 83 104 5.2 9.6 0.00 0.00 0.00 49 1011.8
20260901032030 84 90 5.2 9.6 0.00 0.00 0.00 49 1011.8
20260901031542 84 101 5.2 9.6 0.00 0.00 0.00 49 1011.9
20260901031022 84 95 5.2 8.7 0.00 0.00 0.00 48 1011.8
20260901030525 84 98 5.2 8.7 0.00 0.00 0.00 48 1011.8
20260901030048 85 95 6.1 8.7 0.00 0.00 0.00 48 1011.7
20260901025526 85 97 5.2 7.8 0.00 0.00 0.00 48 1011.8
20260901025026 85 101 5.2 7.8 0.00 0.00 0.00 47 1011.8
20260901024546 85 107 5.2 7.8 0.00 0.00 0.00 47 1011.6
20260901024025 86 86 4.3 7.8 0.00 0.00 0.00 47 1011.5
20260901023524 86 98 5.2 7.8 0.00 0.00 0.00 46 1011.4
20260901023044 86 96 5.2 7.8 0.00 0.00 0.00 46 1011.3
20260901022524 86 111 5.2 7.8 0.00 0.00 0.00 46 1011.3
20260901022029 87 96 5.2 7.8 0.00 0.00 0.00 46 1011.2
20260901021550 87 93 4.3 8.7 0.00 0.00 0.00 45 1011.2
20260901021025 87 101 6.1 8.7 0.00 0.00 0.00 45 1011.0
20260901020525 87 95 5.2 8.7 0.00 0.00 0.00 45 1011.0
20260901020051 88 92 5.2 8.7 0.00 0.00 0.00 44 1010.9
20260901015525 88 94 4.3 7.8 0.00 0.00 0.00 44 1010.8
20260901015025 88 90 4.3 7.8 0.00 0.00 0.00 44 1010.9
20260901014547 89 105 5.2 7.8 0.00 0.00 0.00 43 1010.8
20260901014024 89 92 5.2 7.8 0.00 0.00 0.00 43 1010.8
20260901013525 90 100 4.3 7.8 0.00 0.00 0.00 42 1010.6
20260901013100 90 96 4.3 7.8 0.00 0.00 0.00 42 1010.6
20260901012525 90 107 5.2 7.8 0.00 0.00 0.00 41 1010.6
20260901012025 91 105 5.2 7.8 0.00 0.00 0.00 40 1010.6
20260901011545 91 93 5.2 7.0 0.00 0.00 0.00 40 1010.6
20260901011025 92 103 4.3 7.0 0.00 0.00 0.00 39 1010.6
20260901010526 92 103 4.3 7.8 0.00 0.00 0.00 39 1010.5
20260901010046 93 101 5.2 7.8 0.00 0.00 0.00 38 1010.4
20260901005526 93 95 5.2 8.7 0.00 0.00 0.00 38 1010.4
20260901005025 93 103 5.2 8.7 0.00 0.00 0.00 37 1010.4
20260901004549 94 100 4.3 7.8 0.00 0.00 0.00 37 1010.4
20260901004024 95 102 5.2 8.7 0.00 0.00 0.00 37 1010.3
20260901003525 95 98 5.2 8.7 0.00 0.00 0.00 36 1010.3
20260901003044 96 98 6.1 8.7 0.00 0.00 0.00 35 1010.2
20260901002525 96 103 5.2 9.6 0.00 0.00 0.00 35 1010.3
20260901002024 97 103 6.1 9.6 0.00 0.00 0.00 34 1010.3
20260901001546 97 99 6.1 9.6 0.00 0.00 0.00 33 1010.2
20260901001026 98 103 6.1 10.4 0.00 0.00 0.00 33 1010.2
20260901000528 98 113 7.0 10.4 0.00 0.00 0.00 32 1010.2
20260901000045 98 96 7.0 11.3 0.00 0.00 0.00 32 1010.3
20260831235525 98 104 7.8 11.3 0.00 0.00 0.00 31 1010.3
20260831235028 99 94 6.1 10.4 0.00 0.00 0.00 31 1010.3
20260831234550 99 104 7.0 14.8 0.00 0.00 0.00 30 1010.3
20260831234024 99 109 8.7 14.8 0.00 0.00 0.00 30 1010.2
20260831233526 99 102 8.7 13.0 0.00 0.00 0.00 30 1010.4
20260831233053 99 100 7.8 15.6 0.00 0.00 0.00 30 1010.3
20260831232527 100 93 9.6 15.6 0.00 0.00 0.00 30 1010.3
20260831232025 100 94 8.7 15.6 0.00 0.00 0.00 30 1010.3
20260831231544 100 98 7.0 14.8 0.00 0.00 0.00 30 1010.3
20260831231030 101 103 7.8 14.8 0.00 0.00 0.00 30 1010.4
20260831230525 101 113 9.6 15.6 0.00 0.00 0.00 30 1010.3
20260831230045 101 113 11.3 16.5 0.00 0.00 0.00 30 1010.4
20260831225525 101 113 9.6 16.5 0.00 0.00 0.00 30 1010.4
20260831225030 101 124 11.3 17.4 0.00 0.00 0.00 30 1010.5
20260831224546 101 110 11.3 17.4 0.00 0.00 0.00 30 1010.4
20260831224028 101 97 11.3 17.4 0.00 0.00 0.00 30 1010.4
20260831223526 101 112 12.2 17.4 0.00 0.00 0.00 29 1010.5
20260831223053 102 113 10.4 18.2 0.00 0.00 0.00 29 1010.4
20260831222525 102 95 11.3 18.2 0.00 0.00 0.00 29 1010.5
20260831222026 102 103 9.6 17.4 0.00 0.00 0.00 29 1010.6
20260831221544 103 112 9.6 14.8 0.00 0.00 0.00 29 1010.7
20260831221024 102 92 9.6 15.6 0.00 0.00 0.00 28 1010.6
20260831220522 102 113 10.4 15.6 0.00 0.00 0.00 28 1010.6
20260831220051 103 84 8.7 15.6 0.00 0.00 0.00 28 1010.6
20260831215527 103 88 8.7 12.2 0.00 0.00 0.00 28 1010.6
20260831215025 103 97 7.8 11.3 0.00 0.00 0.00 27 1010.6
20260831214558 103 117 7.0 15.6 0.00 0.00 0.00 27 1010.7
20260831214024 103 146 8.7 15.6 0.00 0.00 0.00 26 1010.7
20260831213525 103 128 9.6 19.1 0.00 0.00 0.00 27 1010.7
20260831213043 103 105 8.7 19.1 0.00 0.00 0.00 27 1010.7
20260831212818 104 107 12.2 18.2 0.00 0.00 0.00 27 1010.7
20260831212028 104 103 7.8 15.6 0.00 0.00 0.00 27 1010.8
20260831211545 104 144 9.6 15.6 0.00 0.00 0.00 25 1010.8
20260831211024 105 120 8.7 20.0 0.00 0.00 0.00 26 1010.8
20260831210525 104 115 11.3 20.0 0.00 0.00 0.00 26 1010.8
20260831210046 104 110 11.3 20.9 0.00 0.00 0.00 27 1010.8
20260831205525 104 97 14.8 20.9 0.00 0.00 0.00 26 1010.8
20260831205024 104 127 10.4 19.1 0.00 0.00 0.00 27 1010.8